Flag for Italy Weather past 2 weeks in Palermo, Italy

Now
63 °F

Clear.


Feels Like: 63 °F
Forecast: 57 / 69 °F
Wind: 13 mph from Southwest

Location: Palermo / Punta Raisi

Current Time: Apr 25, 2015 at 10:30:48 PM

Latest Report: Apr 25, 2015 at 9:50 PM


Visibility: 10 mi

Pressure: 30.04 "Hg

Humidity: 94%

Dew point: 61 °F

Location of PalermoLocation

Historic Weather in Palermo — Graph

°F

Palermo temperature yesterday

Maximum temperature yesterday: 72 °F (at 10:50 AM)
Minimum temperature yesterday: 63 °F (at 12:20 AM)
Average temperature yesterday: 66 °F

Past Weeks' High & Low Weather Summary

 TemperatureHumidityPressure
High81 °F (Apr 17, 1:20 PM)100% (Apr 19, 3:50 AM)30.42 "Hg (Apr 19, 3:50 AM)
Low48 °F (Apr 13, 6:50 AM)20% (Apr 17, 1:20 PM)29.86 "Hg (Apr 19, 6:50 AM)
Average61 °F77%30.17 "Hg
* Reported Apr 10 9:20 PM — Apr 25 9:20 PM, Palermo, Weather by CustomWeather, © 2015

Note: Actual official high and low records may vary slightly from our data, if they occured in-between our weather recording intervals... More about our weather records

Advertising

Palermo weather history for previous 24 hours

 ConditionsComfort  
Time TempWeatherWind HumidityBarometerVisibility
9:20 PM
Sat, Apr 25
63 °FClear.13 mph94%30.04 "Hg10 mi
8:50 PM64 °FSunny.13 mph88%30.01 "Hg10 mi
8:20 PM64 °FSunny.13 mph88%30.01 "Hg10 mi
7:50 PM66 °FPassing clouds.3 mph83%30.01 "HgN/A
7:20 PM66 °FSunny.6 mph83%30.01 "Hg10 mi
6:50 PM66 °FSunny.10 mph83%30.01 "Hg10 mi
6:20 PM66 °FSunny.14 mph83%30.01 "Hg10 mi
5:50 PM66 °FSunny.16 mph83%30.01 "Hg10 mi
5:20 PM68 °FSunny.15 mph78%30.01 "Hg10 mi
4:50 PM66 °FSunny.16 mph83%30.01 "Hg10 mi
4:20 PM68 °FSunny.17 mph78%30.01 "Hg10 mi
3:50 PM68 °FSunny.15 mph78%30.01 "Hg10 mi
3:20 PM68 °FSunny.16 mph78%30.01 "Hg10 mi
2:50 PM68 °FSunny.18 mph78%30.01 "Hg10 mi
2:20 PM70 °FSunny.17 mph73%30.04 "Hg10 mi
1:50 PM68 °FSunny.16 mph78%30.04 "Hg10 mi
1:20 PM66 °FSunny.15 mph83%30.04 "Hg10 mi
12:50 PM68 °FSunny.14 mph78%30.04 "Hg10 mi
12:20 PM66 °FSunny.13 mph83%30.07 "Hg10 mi
11:50 AM66 °FSunny.5 mph83%30.07 "Hg10 mi
11:20 AM64 °FPassing clouds.6 mph88%30.07 "HgN/A
10:50 AM64 °FPassing clouds.6 mph83%30.07 "HgN/A
10:20 AM63 °FPassing clouds.7 mph88%30.07 "HgN/A
9:50 AM63 °FSunny.7 mph88%30.04 "Hg10 mi
9:20 AM63 °FSunny.7 mph88%30.04 "Hg10 mi
8:50 AM63 °FPassing clouds.7 mph88%30.04 "HgN/A
8:20 AM63 °FPassing clouds.6 mph88%30.04 "HgN/A
7:50 AM63 °FScattered clouds.1 mph88%30.04 "HgN/A
7:20 AM61 °FPassing clouds.5 mph88%30.04 "HgN/A
6:50 AM61 °FPassing clouds.7 mph88%30.01 "Hg6 mi
6:20 AM61 °FPassing clouds.6 mph88%30.01 "Hg6 mi
5:50 AM63 °FPassing clouds.5 mph88%30.01 "HgN/A
5:20 AM63 °FPassing clouds.2 mph83%30.01 "HgN/A
4:50 AM63 °FPassing clouds.5 mph88%30.01 "HgN/A
4:20 AM63 °FPassing clouds.6 mph88%30.04 "HgN/A
3:50 AM63 °FPassing clouds.5 mph88%30.04 "HgN/A
3:20 AM63 °FPassing clouds.3 mph88%30.04 "HgN/A
2:50 AM63 °FPassing clouds.5 mph88%30.04 "HgN/A
2:20 AM61 °FPassing clouds.2 mph94%30.04 "HgN/A
1:50 AM63 °FPassing clouds.3 mph94%30.04 "Hg6 mi
1:20 AM63 °FPassing clouds.5 mph94%30.04 "Hg5 mi
12:50 AM63 °FPassing clouds.5 mph94%30.04 "Hg5 mi
12:20 AM63 °FPassing clouds.5 mph94%30.07 "Hg5 mi
11:20 PM
Fri, Apr 24
63 °FPassing clouds.6 mph94%30.04 "Hg5 mi
10:50 PM63 °FPassing clouds.6 mph94%30.04 "Hg5 mi
10:20 PM63 °FPassing clouds.5 mph94%30.04 "Hg6 mi
Weather by CustomWeather, © 2015

See weather overviewHow to use our weather pages